Waarnemingen

Advertentie
Mijn weer
Leeuwarden, Nederland (6270): temperatuur & dauwpunt: 14.07.2018 04:00:00 - 20.07.2018 04:00:00 (CEST)Leeuwarden, Nederland (6270): temperatuur 5cm: 14.07.2018 04:00:00 - 20.07.2018 04:00:00 (CEST)Leeuwarden, Nederland (6270): windsnelheid & windstoten: 14.07.2018 04:00:00 - 20.07.2018 04:00:00 (CEST)Leeuwarden, Nederland (6270): windrichting: 14.07.2018 04:00:00 - 20.07.2018 04:00:00 (CEST)Leeuwarden, Nederland (6270): luchtdruk: 14.07.2018 04:00:00 - 20.07.2018 04:00:00 (CEST)Leeuwarden, Nederland (6270): zicht: 14.07.2018 04:00:00 - 20.07.2018 04:00:00 (CEST)Leeuwarden, Nederland (6270): neerslag: 14.07.2018 04:00:00 - 20.07.2018 04:00:00 (CEST)
Datum & Tijd tt [°C] td [°C] tt 5cm [°C] ff [km/u] ff [kn] fx [km/u] fx [kn] dd ppp [hPa] vv [km] rr [mm]
20.07.2018 04:00:00 12,3 11,5 9,6 4 2 7 4 NO 1017,0 10 0,0
20.07.2018 03:00:00 13,0 11,6 11,2 5 3 11 6 NO 1017,4 10 0,0
20.07.2018 02:00:00 13,9 12,7 11,1 4 2 11 6 - 1017,7 10 0,0
20.07.2018 01:00:00 14,8 12,7 13,1 9 5 14 8 ONO 1017,8 10 0,0
20.07.2018 00:00:00 14,9 12,6 13,8 11 6 14 8 NNO 1017,9 10 0,0
19.07.2018 23:00:00 14,8 13,2 13,5 11 6 14 8 NNO 1018,1 10 0,0
19.07.2018 22:00:00 16,5 13,5 15,8 13 7 22 12 NNO 1018,2 10 0,0
19.07.2018 21:00:00 18,1 13,5 17,8 16 9 25 14 NO 1018,1 10 0,0
19.07.2018 20:00:00 18,9 14,1 19,1 21 11 29 16 NO 1018,1 10 0,0
19.07.2018 19:00:00 19,6 13,9 19,8 22 12 32 18 NNO 1018,1 10 0,0
19.07.2018 18:00:00 21,0 12,5 21,9 28 15 36 19 NO 1018,1 10 0,0
19.07.2018 17:00:00 21,6 13,0 22,9 28 15 40 21 NNO 1018,2 10 0,0
19.07.2018 16:00:00 22,4 15,5 23,3 28 15 40 21 NO 1018,4 10 0,0
19.07.2018 15:00:00 22,3 14,9 23,8 21 11 40 21 NO 1018,3 10 0,0
19.07.2018 14:00:00 24,2 8,9 26,8 15 8 25 14 ONO 1018,5 10 0,0
19.07.2018 13:00:00 23,8 10,2 25,9 11 6 25 14 - 1019,0 10 0,0
19.07.2018 12:00:00 23,1 10,8 25,3 9 5 22 12 - 1019,1 10 0,0
19.07.2018 11:00:00 22,1 10,2 24,5 9 5 18 10 O 1019,3 10 0,0
19.07.2018 10:00:00 19,9 13,2 22,1 13 7 18 10 O 1019,5 10 0,0
19.07.2018 09:00:00 17,3 13,6 18,0 11 6 18 10 ONO 1019,5 10 0,0
19.07.2018 08:00:00 15,7 13,1 16,1 8 4 14 8 ONO 1019,7 10 0,0
19.07.2018 07:00:00 14,4 13,0 13,7 11 6 11 6 ONO 1019,6 10 0,0
19.07.2018 06:00:00 13,3 12,4 11,8 5 3 7 4 ONO 1019,4 10 0,0
19.07.2018 05:00:00 12,6 12,0 10,1 4 2 7 4 ONO 1019,4 10 0,0
19.07.2018 04:00:00 12,6 11,7 10,3 4 2 7 4 NO 1019,5 10 0,0
19.07.2018 03:00:00 15,3 11,8 13,3 2 1 7 4 - 1019,5 10 0,0
19.07.2018 02:00:00 16,1 12,3 14,7 5 3 11 6 O 1019,3 10 0,0
19.07.2018 01:00:00 17,2 12,4 15,3 8 4 11 6 O 1019,3 10 0,0
19.07.2018 00:00:00 17,0 12,8 14,8 8 4 11 6 O 1019,4 10 0,0
18.07.2018 23:00:00 17,3 12,8 13,9 9 5 11 6 O 1019,3 10 0,0
18.07.2018 22:00:00 17,5 12,4 14,8 8 4 14 8 O 1019,0 10 0,0
18.07.2018 21:00:00 19,5 13,5 19,0 11 6 18 10 ONO 1018,9 10 0,0
18.07.2018 20:00:00 20,5 13,6 20,3 13 7 18 10 ONO 1018,7 10 0,0
18.07.2018 19:00:00 21,3 14,1 21,4 8 4 14 8 N 1018,6 10 0,0
18.07.2018 18:00:00 21,6 13,8 21,8 8 4 11 6 NNO 1018,7 10 0,0
18.07.2018 17:00:00 21,2 14,1 21,0 8 4 18 10 NNO 1018,8 10 0,0
18.07.2018 16:00:00 21,3 14,2 21,5 9 5 18 10 NO 1018,9 10 0,0
18.07.2018 15:00:00 21,4 14,2 21,6 15 8 22 12 NNO 1018,8 10 0,0
18.07.2018 14:00:00 22,5 12,6 23,3 8 4 18 10 - 1018,6 10 0,0
18.07.2018 13:00:00 22,3 13,8 22,8 9 5 18 10 NW 1018,7 10 0,0
18.07.2018 12:00:00 22,1 13,6 23,0 11 6 18 10 W 1018,6 10 0,0
18.07.2018 11:00:00 22,0 13,5 24,0 8 4 14 8 ZW 1018,5 10 0,0
18.07.2018 10:00:00 20,9 14,3 22,3 5 3 11 6 ZW 1018,7 10 0,0
18.07.2018 09:00:00 19,6 13,1 20,1 5 3 7 4 Z 1018,5 10 0,0
18.07.2018 08:00:00 16,6 13,3 16,7 8 4 11 6 ZZW 1018,1 10 0,0
18.07.2018 07:00:00 14,4 12,5 13,0 2 1 4 2 Z 1017,8 10 0,0
18.07.2018 06:00:00 12,1 11,7 9,0 2 1 11 6 ZW 1017,5 10 0,0
18.07.2018 05:00:00 12,4 11,6 7,8 4 2 4 2 ZW 1017,3 10 0,0
18.07.2018 04:00:00 13,0 12,1 8,9 2 1 7 4 - 1017,2 10 0,0
18.07.2018 03:00:00 13,4 12,4 10,9 5 3 11 6 ZW 1017,3 10 0,0
18.07.2018 02:00:00 15,2 12,7 13,8 9 5 22 12 W 1017,2 10 0,0
18.07.2018 01:00:00 15,5 13,2 13,9 11 6 22 12 W 1017,1 10 0,0
18.07.2018 00:00:00 15,0 13,2 13,8 8 4 14 8 W 1017,0 10 0,0
17.07.2018 23:00:00 15,3 13,3 13,5 9 5 14 8 W 1017,0 10 0,0
17.07.2018 22:00:00 16,4 13,7 15,5 13 7 25 14 W 1016,5 10 0,0
17.07.2018 21:00:00 17,6 13,3 17,2 21 11 36 19 W 1016,0 10 0,0
17.07.2018 20:00:00 19,2 14,0 19,8 24 13 36 19 W 1015,3 10 0,0
17.07.2018 19:00:00 19,6 14,2 20,1 24 13 36 19 W 1015,1 10 0,0
17.07.2018 18:00:00 21,2 13,8 22,4 28 15 43 23 WZW 1015,1 10 0,0
17.07.2018 17:00:00 21,7 14,3 23,3 31 17 43 23 W 1014,9 10 0,0
17.07.2018 16:00:00 22,0 14,8 24,0 29 16 43 23 WZW 1014,8 10 0,0
17.07.2018 15:00:00 23,6 15,8 25,4 29 16 47 25 WZW 1014,4 10 0,0
17.07.2018 14:00:00 23,8 15,7 25,8 29 16 40 21 WZW 1014,1 10 0,0
17.07.2018 13:00:00 25,0 15,7 26,8 24 13 36 19 WZW 1013,7 10 0,0
17.07.2018 12:00:00 25,8 12,9 27,6 16 9 29 16 ZZW 1013,3 10 0,0
17.07.2018 11:00:00 25,3 14,7 26,8 13 7 25 14 ZZW 1012,9 10 0,0
17.07.2018 10:00:00 23,6 15,9 24,7 8 4 14 8 Z 1012,7 10 0,0
17.07.2018 09:00:00 20,7 15,8 21,4 9 5 11 6 Z 1012,8 10 0,0
17.07.2018 08:00:00 18,6 15,2 18,6 9 5 14 8 ZZW 1012,9 10 0,0
17.07.2018 07:00:00 18,6 14,6 17,8 4 2 7 4 - 1012,4 10 0,0
17.07.2018 06:00:00 14,8 13,3 13,7 5 3 7 4 O 1012,4 10 0,0
17.07.2018 05:00:00 16,8 14,1 13,5 5 3 11 6 ZO 1012,6 10 0,0
17.07.2018 04:00:00 16,5 14,0 15,5 8 4 32 18 Z 1013,2 10 0,0
17.07.2018 03:00:00 18,9 13,6 17,6 15 8 22 12 OZO 1013,0 10 0,0
17.07.2018 02:00:00 18,8 13,9 17,3 15 8 22 12 O 1013,2 10 0,0
17.07.2018 01:00:00 17,5 14,3 15,7 11 6 14 8 O 1013,6 10 0,0
17.07.2018 00:00:00 16,8 13,9 15,0 11 6 14 8 ONO 1013,6 10 0,0
16.07.2018 23:00:00 18,0 13,7 15,7 9 5 14 8 ONO 1013,5 10 0,0
16.07.2018 22:00:00 19,7 13,9 17,1 13 7 14 8 ONO 1013,2 10 0,0
16.07.2018 21:00:00 22,3 13,7 21,4 15 8 25 14 ONO 1012,9 10 0,0
16.07.2018 20:00:00 23,6 15,8 23,8 21 11 29 16 NO 1012,8 10 0,0
16.07.2018 19:00:00 24,5 14,3 25,3 22 12 32 18 NO 1012,7 10 0,0
16.07.2018 18:00:00 25,3 14,7 26,7 26 14 36 19 NO 1012,9 10 0,0
16.07.2018 17:00:00 26,2 14,2 27,9 22 12 32 18 ONO 1013,1 10 0,0
16.07.2018 16:00:00 25,3 12,8 25,7 13 7 22 12 ONO 1013,4 10 0,0
16.07.2018 15:00:00 27,3 12,3 28,0 13 7 25 14 - 1013,9 10 0,0
16.07.2018 14:00:00 25,4 12,3 25,6 13 7 22 12 - 1014,3 10 0,0
16.07.2018 13:00:00 25,8 12,5 28,4 11 6 22 12 - 1014,5 10 0,0
16.07.2018 12:00:00 24,9 12,3 27,6 11 6 22 12 ZO 1014,8 10 0,0
16.07.2018 11:00:00 24,2 12,0 26,4 11 6 18 10 OZO 1015,0 10 0,0
16.07.2018 10:00:00 23,1 12,6 24,8 11 6 22 12 OZO 1015,0 10 0,0
16.07.2018 09:00:00 21,1 13,0 22,2 11 6 22 12 OZO 1015,2 10 0,0
16.07.2018 08:00:00 18,8 13,1 19,0 15 8 22 12 ZO 1015,3 10 0,0
16.07.2018 07:00:00 17,0 12,4 16,5 13 7 22 12 OZO 1015,3 10 0,0
16.07.2018 06:00:00 15,9 12,0 14,9 15 8 22 12 OZO 1015,3 10 0,0
16.07.2018 05:00:00 16,0 11,7 15,1 16 9 29 16 OZO 1015,5 10 0,0
16.07.2018 04:00:00 16,4 11,3 15,5 16 9 25 14 OZO 1015,8 10 0,0
16.07.2018 03:00:00 16,7 11,5 15,6 16 9 25 14 O 1016,0 10 0,0
16.07.2018 02:00:00 16,9 12,1 15,8 15 8 22 12 O 1016,2 10 0,0
16.07.2018 01:00:00 16,8 12,7 15,7 13 7 18 10 O 1016,3 10 0,0
16.07.2018 00:00:00 17,3 13,1 16,2 15 8 22 12 ONO 1016,6 10 0,0
15.07.2018 23:00:00 17,9 12,6 16,6 15 8 18 10 ONO 1016,5 10 0,0
15.07.2018 22:00:00 18,9 13,3 17,8 15 8 22 12 ONO 1016,4 10 0,0
15.07.2018 21:00:00 21,2 15,2 20,7 16 9 29 16 ONO 1016,0 10 0,0
15.07.2018 20:00:00 22,6 15,1 22,8 24 13 32 18 NO 1015,9 10 0,0
15.07.2018 19:00:00 23,7 14,8 24,5 26 14 32 18 ONO 1016,2 10 0,0
15.07.2018 18:00:00 24,8 13,7 26,2 22 12 36 19 ONO 1016,2 10 0,0
15.07.2018 17:00:00 25,4 11,4 27,7 8 4 22 12 NO 1016,6 10 0,0
15.07.2018 16:00:00 25,5 11,4 27,9 11 6 22 12 - 1017,0 10 0,0
15.07.2018 15:00:00 25,9 11,6 27,9 8 4 18 10 O 1017,5 10 0,0
15.07.2018 14:00:00 24,7 11,6 27,3 9 5 18 10 ONO 1018,0 10 0,0
15.07.2018 13:00:00 23,2 10,5 26,2 9 5 18 10 - 1018,5 10 0,0
15.07.2018 12:00:00 22,6 11,9 25,2 9 5 18 10 - 1018,8 10 0,0
15.07.2018 11:00:00 20,9 11,9 23,4 8 4 18 10 Z 1018,9 10 0,0
15.07.2018 10:00:00 19,5 12,7 21,3 11 6 18 10 Z 1019,0 10 0,0
15.07.2018 09:00:00 18,0 13,1 19,2 9 5 18 10 ZO 1019,1 10 0,0
15.07.2018 08:00:00 16,0 12,1 16,8 9 5 14 8 ZZO 1019,2 10 0,0
15.07.2018 07:00:00 14,6 12,2 14,1 8 4 14 8 ZO 1018,9 10 0,0
15.07.2018 06:00:00 13,5 11,8 12,5 11 6 14 8 ZO 1018,9 10 0,0
15.07.2018 05:00:00 13,3 11,6 12,1 8 4 14 8 ZO 1019,3 10 0,0
15.07.2018 04:00:00 13,6 11,6 12,0 5 3 11 6 ZO 1019,3 10 0,0
15.07.2018 03:00:00 13,8 11,5 11,5 8 4 11 6 OZO 1019,4 10 0,0
15.07.2018 02:00:00 12,3 10,7 9,3 4 2 11 6 - 1019,6 10 0,0
15.07.2018 01:00:00 13,1 11,3 10,1 8 4 11 6 O 1019,9 10 0,0
15.07.2018 00:00:00 13,6 11,3 11,0 8 4 11 6 O 1020,0 10 0,0
14.07.2018 23:00:00 14,0 11,4 11,2 8 4 11 6 - 1020,1 10 0,0
14.07.2018 22:00:00 14,8 11,3 12,8 8 4 14 8 ONO 1020,1 10 0,0
14.07.2018 21:00:00 16,8 11,6 16,6 11 6 18 10 NNO 1020,1 10 0,0
14.07.2018 20:00:00 18,2 11,4 18,8 13 7 22 12 N 1020,1 10 0,0
14.07.2018 19:00:00 19,2 12,0 20,5 13 7 22 12 N 1020,3 10 0,0
14.07.2018 18:00:00 19,6 12,7 21,5 15 8 29 16 N 1020,5 10 0,0
14.07.2018 17:00:00 20,2 13,2 22,1 16 9 25 14 N 1020,8 10 0,0
14.07.2018 16:00:00 20,2 13,1 22,8 16 9 25 14 NNW 1020,9 10 0,0
14.07.2018 15:00:00 20,5 12,6 23,4 11 6 22 12 - 1021,2 10 0,0
14.07.2018 14:00:00 20,7 13,1 22,8 11 6 22 12 NW 1021,5 10 0,0
14.07.2018 13:00:00 18,5 12,2 19,9 9 5 25 14 NNW 1021,8 10 0,0
14.07.2018 12:00:00 19,4 11,6 22,0 11 6 25 14 NNW 1021,7 10 0,0
14.07.2018 11:00:00 17,9 11,9 18,9 13 7 22 12 NNW 1021,9 10 0,0
14.07.2018 10:00:00 17,5 12,5 18,5 9 5 18 10 - 1022,0 10 0,0
14.07.2018 09:00:00 17,4 10,7 19,3 8 4 14 8 NW 1021,9 10 0,0
14.07.2018 08:00:00 16,8 10,1 17,4 4 2 7 4 - 1021,6 10 0,0
14.07.2018 07:00:00 14,3 12,4 13,6 2 1 4 2 - 1021,4 10 0,0
14.07.2018 06:00:00 13,2 12,0 11,7 0 0 4 2 N 1021,5 10 0,0
14.07.2018 05:00:00 11,9 11,0 8,6 2 1 7 4 NNW 1021,7 10 0,0
14.07.2018 04:00:00 12,5 11,3 10,3 5 3 7 4 N 1021,6 10 0,0

tt = temperatuur
td = dauwpunt
tt 5cm = temperatuur 5cm
ff = windsnelheid
fx = windstoten
dd = windrichting
ppp = luchtdruk
vv = zicht
rr = neerslag

Weerstations in de omgeving